Weather past 2 weeks in Bantam, Cocos Islands

Now
82 °F

Clear.


Feels Like: 91 °F
Forecast: 81 / 88 °F
Wind: 8 mph from Southeast

Location: Cocos Island Airport

Current Time: Jan 27, 2015 at 9:04:11 PM

Latest Report: Jan 27, 2015 at 8:30 PM


Visibility: N/A

Pressure: 29.83 "Hg

Humidity: 84%

Dew point: 77 °F

Location of BantamLocation

Historic Weather in Bantam — Graph

°F

Bantam temperature yesterday

Maximum temperature yesterday: 88 °F (at 12:00 PM)
Minimum temperature yesterday: 77 °F (at 10:28 PM)
Average temperature yesterday: 83 °F

Past Weeks' High & Low Weather Summary

 TemperatureHumidityPressure
High88 °F (Jan 22, 11:30 AM)94% (Jan 26, 10:00 PM)29.95 "Hg (Jan 26, 10:00 PM)
Low75 °F (Jan 13, 1:30 AM)51% (Jan 13, 1:30 PM)29.74 "Hg (Jan 18, 4:00 PM)
Average82 °F72%29.85 "Hg
* Reported Jan 12 7:30 PM — Jan 27 7:30 PM, Bantam, Weather by CustomWeather, © 2014

Note: Actual official high and low records may vary slightly from our data, if they occured in-between our weather recording intervals... More about our weather records

Advertising

Bantam weather history for previous 24 hours

 ConditionsComfort  
Time TempWeatherWind HumidityBarometerVisibility
7:30 PM
Jan 27
81 °FSunny.7 mph84%29.80 "HgN/A
6:30 PM82 °FSunny.9 mph84%29.80 "HgN/A
5:30 PM84 °FSunny.10 mph79%29.77 "HgN/A
5:00 PM82 °FPassing clouds.12 mph84%29.77 "HgN/A
4:30 PM84 °FPassing clouds.9 mph74%29.77 "HgN/A
4:00 PM82 °FScattered showers. Passing clouds.10 mph84%29.77 "HgN/A
3:30 PM82 °FScattered showers. Scattered clouds.12 mph84%29.77 "HgN/A
3:00 PM82 °FScattered showers. Scattered clouds.12 mph84%29.77 "HgN/A
2:30 PM84 °FScattered clouds.12 mph84%29.77 "HgN/A
2:00 PM86 °FScattered clouds.5 mph75%29.80 "HgN/A
1:30 PM86 °FPassing clouds.9 mph75%29.80 "HgN/A
1:00 PM84 °FScattered clouds.9 mph74%29.80 "HgN/A
12:30 PM86 °FPassing clouds.7 mph70%29.80 "HgN/A
12:00 PM86 °FScattered clouds.8 mph70%29.83 "HgN/A
11:30 AM84 °FScattered clouds.10 mph79%29.83 "HgN/A
11:00 AM84 °FScattered clouds.5 mph79%29.83 "HgN/A
10:30 AM82 °FScattered clouds.7 mph79%29.83 "HgN/A
10:00 AM82 °FRain showers. Broken clouds.12 mph84%29.83 "HgN/A
9:30 AM86 °FScattered showers. Partly sunny.8 mph70%29.83 "HgN/A
9:00 AM86 °FScattered clouds.8 mph70%29.83 "HgN/A
8:30 AM86 °FScattered clouds.9 mph70%29.83 "HgN/A
8:00 AM84 °FScattered clouds.8 mph74%29.83 "HgN/A
7:30 AM84 °FScattered clouds.8 mph74%29.83 "HgN/A
7:00 AM82 °FScattered clouds.8 mph79%29.83 "HgN/A
6:30 AM82 °FPassing clouds.10 mph79%29.80 "HgN/A
6:00 AM81 °FSprinkles. Passing clouds.12 mph84%29.80 "HgN/A
5:30 AM81 °FPassing clouds.9 mph84%29.80 "HgN/A
5:00 AM81 °FClear.9 mph84%29.77 "HgN/A
4:30 AM81 °FClear.8 mph84%29.77 "HgN/A
4:00 AM81 °FWarm.10 mph84%29.77 "HgN/A
3:00 AM81 °FPassing clouds.9 mph84%29.77 "HgN/A
2:30 AM81 °FPassing clouds.9 mph79%29.80 "HgN/A
2:00 AM81 °FPassing clouds.9 mph79%29.80 "HgN/A
1:30 AM81 °FClear.9 mph79%29.80 "HgN/A
1:00 AM81 °FPassing clouds.10 mph84%29.83 "HgN/A
12:30 AM81 °FPassing clouds.8 mph84%29.83 "HgN/A
12:00 AM79 °FPassing clouds.5 mph94%29.83 "HgN/A
11:30 PM
Jan 26
79 °FPassing clouds.12 mph89%29.86 "HgN/A
11:00 PM79 °FPartly cloudy.10 mph89%29.89 "HgN/A
10:30 PM79 °FSprinkles. Partly cloudy.12 mph89%29.89 "HgN/A
10:28 PM77 °FSprinkles. Partly cloudy.13 mph94%29.89 "HgN/A
10:00 PM79 °FRain showers. Overcast.12 mph94%29.89 "Hg4 mi
9:30 PM81 °FRain. Partly cloudy.10 mph89%29.89 "Hg3 mi
9:00 PM82 °FClear.7 mph79%29.86 "HgN/A
Weather by CustomWeather, © 2014

See weather overviewHow to use our weather pages